Temp
60 60 60 59 59 58 57 57 58 57 57 57 57 56 56 55 56 56 56 55 54 55 55 55 53 51 50 51 53 53 53 53 53 52 51 50 49 48 47 47 48 47 47 45 44 44 44 43 43 43 44 43 42 41 40 39 39 39 38 38 38 37 36 36 36 36 35 35 35
59 59 60 60 59 59 58 57 57 57 57 56 57 56 55 55 56 56 55 54 55 56 55 53 51 50 49 51 52 52 52 53 52 51 50 49 48 48 48 48 47 47 46 45 44 45 44 43 43 43 43 43 42 41 40 40 39 39 38 38 37 37 36 37 36 35 35 35 34
59 59 59 59 59 58 58 57 57 56 56 56 56 55 55 55 56 56 55 55 55 54 53 51 50 50 49 50 50 51 53 53 52 51 50 49 48 48 48 48 47 47 46 45 45 45 44 43 44 45 44 43 42 41 40 39 39 39 38 37 37 37 38 39 36 36 36 36 34
59 59 59 58 57 57 57 57 56 55 55 56 56 55 54 55 56 56 56 56 55 53 52 51 51 51 51 50 51 52 53 53 52 51 50 49 48 48 47 47 46 46 45 44 44 44 43 43 44 44 43 41 41 41 41 40 40 39 38 37 37 38 38 39 37 37 37 36 34
59 59 58 58 57 57 57 57 56 56 56 57 56 55 55 56 56 57 57 57 55 53 52 51 52 52 51 49 51 52 53 53 52 51 49 49 48 47 47 46 46 45 44 44 44 44 44 43 43 43 42 40 41 41 40 39 38 38 38 38 39 39 38 38 38 38 37 37 35
58 58 58 57 56 56 56 56 56 56 57 57 56 55 56 57 57 57 56 55 53 51 51 51 52 51 50 49 51 52 52 51 51 50 49 49 48 47 46 46 45 44 44 44 44 44 44 44 44 42 41 41 40 39 38 38 38 38 38 38 38 38 38 38 38 37 37 36 34
58 57 57 56 55 55 56 56 56 57 56 56 55 55 56 57 57 56 55 52 51 50 50 53 53 52 51 51 51 51 51 50 50 50 50 49 48 47 47 46 45 44 43 44 44 44 43 43 43 43 43 44 42 40 38 38 38 38 38 38 38 38 37 37 37 36 36 34 34
57 57 56 55 55 55 55 56 56 56 56 56 55 55 56 57 57 56 54 50 49 50 51 53 52 52 52 51 50 50 49 48 49 49 49 49 48 47 46 46 45 44 44 44 44 44 43 43 43 42 42 42 42 40 38 38 38 38 37 37 37 37 36 35 35 35 35 34 34
57 56 56 56 55 55 56 56 56 56 56 55 55 56 57 57 56 55 52 49 50 51 52 51 51 51 50 50 51 50 50 50 50 50 49 48 48 47 46 46 45 44 44 44 44 43 43 43 42 42 41 42 41 40 38 38 38 38 37 36 37 36 35 34 34 34 33 33 33
56 56 56 55 56 56 56 56 56 55 55 56 56 57 57 57 56 53 51 50 52 53 53 51 51 51 51 51 51 51 51 51 51 50 49 48 48 47 46 46 45 45 44 43 42 42 42 42 42 41 40 40 39 38 38 38 38 38 37 38 38 37 35 34 33 33 33 34 33
55 55 55 55 56 56 56 56 56 56 56 56 56 56 56 56 54 52 51 52 54 54 53 53 52 52 52 51 51 51 51 51 51 50 49 48 48 47 46 46 45 44 43 42 42 42 42 42 41 40 40 39 38 38 37 37 38 37 37 37 37 37 36 35 33 33 33 33 32
54 54 54 54 55 56 57 56 56 56 56 56 56 56 55 54 52 51 52 53 54 54 53 53 53 52 51 51 51 51 51 50 50 49 48 47 46 46 45 45 44 43 42 41 41 42 42 41 40 40 39 38 37 37 37 37 37 37 37 36 36 36 35 35 33 32 31 31 31
54 54 54 54 55 56 56 56 56 56 56 56 56 55 54 53 51 51 52 53 53 53 53 53 52 51 50 50 50 50 50 50 49 49 48 46 46 45 45 44 43 42 42 41 41 41 41 40 39 39 38 37 36 37 37 37 37 37 37 36 35 35 34 34 33 32 31 30 31
53 53 53 53 54 54 55 55 56 56 55 55 55 54 53 52 52 51 51 53 53 53 52 51 50 50 50 50 50 50 50 49 49 48 47 46 45 45 44 43 42 42 42 41 41 41 40 40 39 38 38 37 37 37 37 37 37 37 37 36 35 35 34 33 32 32 31 31 32
52 53 53 53 53 53 54 55 55 55 54 54 54 53 53 53 53 52 52 52 53 52 51 49 49 49 50 50 50 50 49 49 48 47 46 45 44 44 43 42 42 42 42 41 41 40 40 39 38 38 38 38 37 37 37 37 37 37 36 36 35 35 34 34 33 32 32 32 31
52 52 52 53 53 53 53 54 54 54 53 53 53 53 53 53 53 53 52 52 52 51 50 49 49 49 49 49 49 49 49 48 47 46 45 44 44 43 43 42 42 42 42 41 40 40 39 38 38 38 38 38 38 37 37 37 37 36 36 35 35 35 35 35 34 34 33 32 33
51 52 52 52 52 53 53 54 54 53 53 52 53 53 53 53 53 52 52 52 51 50 50 50 49 48 48 48 49 49 48 47 46 45 45 44 44 43 43 42 42 41 41 40 40 39 38 38 37 37 37 37 37 37 37 37 36 36 36 36 36 36 36 37 36 35 34 33 34
51 51 51 52 52 53 53 53 53 52 52 52 52 52 52 52 51 51 52 52 51 50 50 49 49 48 48 47 48 48 47 46 45 45 45 44 43 43 42 41 41 40 40 40 39 38 38 37 37 36 36 36 36 36 37 37 37 37 37 37 37 37 37 37 36 35 34 33 34
50 51 51 51 52 52 53 53 52 52 52 52 52 52 52 51 51 51 51 51 51 50 49 49 48 48 48 48 47 47 47 45 45 44 44 43 43 43 42 41 41 40 39 39 38 38 37 37 37 36 36 36 36 36 37 37 38 38 38 37 38 37 37 36 35 34 33 33 33
50 50 51 52 52 52 52 52 52 52 52 52 52 52 51 51 51 51 51 50 50 50 49 49 48 48 47 47 47 46 46 45 44 44 43 43 43 42 42 41 40 40 39 38 38 37 37 37 37 37 37 37 37 37 37 37 38 38 38 38 38 37 36 35 34 33 32 31 30
50 51 51 52 52 52 52 52 52 52 52 52 51 51 51 51 51 51 50 50 50 49 49 48 48 47 46 46 45 45 45 45 44 43 43 43 42 42 41 41 40 40 39 38 38 37 37 37 37 37 37 37 37 37 37 38 38 38 38 38 37 36 35 34 33 32 31 30 29
50 51 52 52 52 52 52 52 52 52 51 51 51 51 50 50 50 50 50 49 49 49 48 47 46 46 45 45 44 44 44 44 43 43 43 43 42 41 41 41 41 40 39 37 37 37 37 37 37 37 37 37 37 38 39 39 39 38 37 37 36 35 34 33 32 31 30 29 28
51 51 52 52 52 52 52 52 51 51 51 50 50 50 50 49 49 49 49 49 48 47 46 46 45 45 45 44 44 43 43 43 43 43 42 42 41 41 41 41 40 39 37 37 36 36 36 37 37 37 37 38 38 39 39 39 38 37 36 36 35 34 33 32 31 31 30 29 28
51 51 51 51 51 51 51 51 50 50 49 49 49 49 49 49 49 48 48 48 47 47 46 46 45 44 44 44 44 44 43 43 42 42 42 41 41 41 40 40 39 38 37 37 38 38 38 38 37 37 38 39 39 39 38 37 37 36 35 34 33 33 32 31 31 30 30 29 28
50 50 50 51 50 50 50 50 49 49 48 48 48 48 48 48 48 48 47 47 46 46 45 45 44 44 43 43 43 43 43 43 43 42 41 41 40 40 40 39 39 38 38 40 44 45 44 43 41 40 39 39 38 38 37 36 35 34 34 33 32 32 31 30 30 30 29 29 28
50 50 50 50 50 49 49 48 48 48 48 48 48 48 48 48 47 47 46 46 45 45 45 44 44 44 43 43 43 43 43 43 43 42 41 40 39 39 39 39 39 38 40 44 45 46 46 46 45 43 40 38 38 37 36 35 34 33 32 32 31 30 30 29 29 29 29 29 27
49 49 49 49 49 48 48 48 47 47 47 47 47 47 47 47 47 46 45 45 45 44 44 44 44 44 44 43 43 42 42 42 41 41 40 39 39 39 39 39 38 39 40 44 45 46 46 46 45 44 42 39 37 36 35 34 33 32 31 30 30 29 29 28 28 29 29 28 26
49 49 48 48 48 47 47 47 47 47 47 47 46 46 46 46 46 45 45 45 44 44 44 43 44 44 44 43 42 41 41 40 40 39 39 39 39 39 38 38 38 40 43 45 45 45 45 45 45 45 43 40 36 35 34 33 32 31 30 29 28 28 28 28 28 28 28 27 26
48 47 47 47 46 46 46 46 46 46 46 46 46 46 46 45 45 45 44 44 43 43 43 43 43 43 42 41 41 40 40 39 39 39 39 39 39 38 38 38 39 41 43 46 45 45 44 44 44 44 44 42 37 34 32 32 31 30 29 28 28 28 28 28 28 28 27 27 26
47 46 46 45 45 45 45 45 45 46 46 46 46 45 45 45 44 44 43 43 42 42 42 42 41 41 41 40 40 40 39 38 39 39 39 39 38 38 38 39 39 41 43 45 45 44 44 44 44 43 43 43 39 34 31 30 29 28 28 28 28 28 28 28 28 27 27 26 25
45 45 45 44 44 44 44 45 45 45 46 46 45 45 44 43 43 42 42 42 41 41 41 41 40 40 40 39 39 39 38 38 38 38 39 38 39 38 38 38 39 41 43 45 44 44 44 43 43 43 43 43 38 33 30 28 28 28 28 28 28 28 28 28 28 27 26 25 24
42 43 43 43 43 44 44 44 45 45 45 45 44 43 43 42 41 41 41 41 41 40 40 40 40 39 39 39 39 38 38 38 38 38 38 38 38 37 38 38 39 41 43 44 44 44 43 43 43 43 42 42 38 33 29 28 27 27 27 27 27 27 27 28 27 27 26 24 24
39 40 41 42 42 43 43 44 44 44 44 43 43 42 41 40 40 40 41 41 40 40 40 40 40 40 39 39 39 38 38 39 39 39 39 38 37 37 37 38 38 41 43 44 43 43 43 43 42 42 42 41 36 31 28 27 27 27 27 27 27 27 27 26 26 25 25 24 23
38 38 39 40 41 42 42 43 43 43 43 42 41 41 40 40 40 40 41 41 40 40 40 40 40 39 39 39 39 39 39 39 39 38 38 37 37 37 37 36 37 41 43 43 43 43 42 42 42 42 41 40 34 30 27 26 26 26 26 26 27 27 26 26 25 25 24 24 24
37 37 37 38 39 40 40 41 41 41 41 41 40 40 40 40 40 40 40 41 41 40 40 39 39 39 39 39 39 39 39 39 38 38 38 37 37 36 36 35 36 40 43 43 43 42 42 42 42 41 40 37 31 28 26 26 26 26 26 26 26 27 26 25 25 24 24 25 25
37 37 37 37 37 38 39 39 40 40 40 40 40 39 39 39 39 40 40 41 40 39 39 39 39 38 38 38 38 39 39 39 38 38 38 38 37 36 34 33 34 38 42 43 42 42 42 42 41 41 39 34 29 26 26 26 26 26 26 26 26 26 26 25 25 25 25 25 26
38 37 37 37 37 38 38 39 40 40 40 40 39 39 39 39 39 39 40 40 39 39 38 38 38 38 38 38 38 38 38 38 38 38 38 38 37 35 33 32 31 34 39 42 42 42 42 41 41 40 37 30 27 25 25 25 26 26 26 25 25 25 25 24 25 25 26 27 29
39 39 38 38 38 39 40 40 40 40 39 39 38 38 39 39 39 39 40 40 39 38 38 38 38 38 38 38 38 38 38 38 38 37 37 36 35 34 32 31 30 31 35 41 42 42 41 41 41 40 36 29 26 25 25 25 25 25 25 25 25 24 24 24 25 25 26 27 33
40 40 39 39 39 40 40 40 39 39 39 38 38 38 39 39 39 39 40 40 39 39 39 38 38 38 38 39 38 38 37 37 37 37 35 34 33 33 32 30 28 29 33 40 41 42 41 41 41 40 37 30 26 25 25 25 25 24 24 24 24 24 24 25 25 25 26 27 34
39 39 39 39 39 39 39 38 38 38 38 38 39 39 39 39 39 40 40 40 39 39 38 38 37 38 38 40 38 37 36 35 35 34 34 33 33 34 34 29 27 27 31 38 41 41 41 41 41 40 37 30 26 25 25 25 24 24 23 23 23 24 24 25 25 25 25 25 30
38 38 38 38 38 38 38 38 38 38 38 38 39 39 39 40 40 39 39 38 38 38 38 38 37 38 38 39 37 36 34 33 32 31 31 32 32 34 33 28 25 25 28 34 39 41 41 41 40 40 38 31 26 25 24 24 24 23 23 22 23 23 24 24 24 24 25 25 25
MSLP
1009.10 1009.10 1009.22 1009.46 1009.74 1010.06 1010.34 1010.62 1010.82 1011.02 1011.22 1011.46 1011.74 1012.02 1012.30 1012.54 1012.82 1013.06 1013.30 1013.54 1013.70 1013.86 1013.98 1014.10 1014.22 1014.42 1014.58 1014.74 1014.98 1015.34 1015.70 1015.90 1016.02 1016.06 1016.18 1016.38 1016.66 1016.94 1017.18 1017.38 1017.58 1017.82 1018.02 1018.18 1018.26 1018.30 1018.42 1018.50 1018.70 1018.86 1019.02 1019.18 1019.34 1019.50 1019.66 1019.74 1019.82 1019.94 1020.06 1020.26 1020.38 1020.54 1020.70 1020.86 1021.02 1021.10 1021.18 1021.30 1021.30
1009.14 1009.10 1009.18 1009.38 1009.70 1010.02 1010.30 1010.58 1010.78 1011.02 1011.26 1011.46 1011.62 1011.94 1012.26 1012.46 1012.74 1012.98 1013.30 1013.58 1013.74 1013.90 1014.02 1014.22 1014.42 1014.58 1014.74 1014.90 1015.10 1015.42 1015.70 1015.90 1015.98 1016.06 1016.22 1016.42 1016.70 1016.98 1017.22 1017.46 1017.62 1017.86 1018.02 1018.18 1018.30 1018.34 1018.42 1018.54 1018.74 1018.90 1019.10 1019.26 1019.42 1019.58 1019.66 1019.74 1019.78 1019.90 1020.10 1020.30 1020.42 1020.50 1020.66 1020.82 1020.94 1021.02 1021.14 1021.22 1021.30
1009.14 1009.14 1009.18 1009.34 1009.62 1009.90 1010.22 1010.50 1010.74 1010.98 1011.22 1011.46 1011.70 1011.98 1012.22 1012.46 1012.74 1013.02 1013.30 1013.58 1013.74 1013.98 1014.18 1014.42 1014.62 1014.78 1014.94 1015.18 1015.38 1015.58 1015.78 1015.90 1015.94 1016.06 1016.26 1016.54 1016.82 1017.10 1017.30 1017.50 1017.74 1017.94 1018.10 1018.22 1018.30 1018.30 1018.38 1018.50 1018.66 1018.90 1019.10 1019.30 1019.46 1019.62 1019.74 1019.78 1019.82 1019.94 1020.14 1020.30 1020.42 1020.50 1020.62 1020.74 1020.90 1021.02 1021.10 1021.18 1021.30
1009.14 1009.14 1009.18 1009.26 1009.46 1009.70 1009.94 1010.22 1010.58 1010.86 1011.10 1011.38 1011.70 1012.02 1012.26 1012.50 1012.74 1013.02 1013.30 1013.58 1013.90 1014.18 1014.38 1014.58 1014.74 1014.98 1015.18 1015.42 1015.62 1015.82 1015.94 1016.02 1015.98 1016.14 1016.46 1016.74 1017.02 1017.22 1017.38 1017.58 1017.86 1018.02 1018.18 1018.30 1018.30 1018.34 1018.38 1018.50 1018.66 1018.90 1019.14 1019.34 1019.54 1019.70 1019.78 1019.86 1019.90 1019.98 1020.14 1020.30 1020.38 1020.46 1020.62 1020.74 1020.86 1020.90 1021.02 1021.18 1021.26
1009.14 1009.14 1009.10 1009.22 1009.34 1009.54 1009.74 1010.02 1010.34 1010.70 1011.02 1011.30 1011.62 1011.98 1012.30 1012.50 1012.74 1013.02 1013.30 1013.66 1013.98 1014.22 1014.46 1014.70 1014.90 1015.14 1015.34 1015.62 1015.82 1015.98 1016.06 1016.14 1016.18 1016.30 1016.62 1016.98 1017.22 1017.34 1017.50 1017.74 1017.94 1018.18 1018.30 1018.34 1018.38 1018.38 1018.42 1018.54 1018.74 1018.98 1019.18 1019.42 1019.54 1019.70 1019.78 1019.86 1019.90 1020.02 1020.18 1020.30 1020.34 1020.46 1020.58 1020.74 1020.82 1020.90 1020.98 1021.10 1021.18
1009.06 1009.18 1009.22 1009.30 1009.42 1009.58 1009.74 1010.02 1010.30 1010.58 1010.86 1011.18 1011.54 1011.90 1012.18 1012.46 1012.70 1013.02 1013.30 1013.62 1013.98 1014.30 1014.58 1014.78 1014.98 1015.26 1015.54 1015.78 1015.94 1016.06 1016.14 1016.18 1016.30 1016.50 1016.86 1017.22 1017.42 1017.54 1017.66 1017.86 1018.06 1018.22 1018.34 1018.42 1018.46 1018.46 1018.50 1018.62 1018.82 1019.06 1019.30 1019.46 1019.62 1019.74 1019.78 1019.86 1019.94 1020.06 1020.22 1020.30 1020.34 1020.46 1020.54 1020.66 1020.78 1020.90 1020.98 1021.10 1021.18
1008.90 1009.14 1009.30 1009.46 1009.58 1009.66 1009.82 1010.02 1010.26 1010.50 1010.78 1011.18 1011.46 1011.74 1012.02 1012.30 1012.58 1012.90 1013.30 1013.66 1014.06 1014.38 1014.62 1014.86 1015.02 1015.30 1015.58 1015.78 1015.94 1016.06 1016.18 1016.30 1016.42 1016.74 1017.10 1017.46 1017.54 1017.58 1017.74 1017.94 1018.14 1018.30 1018.42 1018.46 1018.46 1018.54 1018.62 1018.70 1018.90 1019.18 1019.38 1019.54 1019.70 1019.82 1019.90 1019.90 1019.98 1020.10 1020.26 1020.38 1020.42 1020.46 1020.58 1020.66 1020.74 1020.86 1020.94 1021.14 1021.22
1008.86 1009.10 1009.30 1009.46 1009.58 1009.74 1009.90 1010.02 1010.18 1010.46 1010.78 1011.14 1011.46 1011.66 1011.90 1012.18 1012.50 1012.90 1013.30 1013.74 1014.10 1014.42 1014.62 1014.86 1015.06 1015.30 1015.50 1015.66 1015.86 1016.02 1016.14 1016.30 1016.54 1016.90 1017.26 1017.50 1017.58 1017.66 1017.78 1018.02 1018.22 1018.34 1018.46 1018.46 1018.50 1018.62 1018.70 1018.78 1018.98 1019.22 1019.46 1019.58 1019.74 1019.86 1019.90 1019.94 1020.02 1020.14 1020.30 1020.46 1020.46 1020.50 1020.58 1020.66 1020.74 1020.82 1020.90 1021.06 1021.18
1008.86 1009.06 1009.30 1009.46 1009.74 1009.94 1010.02 1010.14 1010.22 1010.42 1010.74 1011.10 1011.42 1011.66 1011.90 1012.18 1012.54 1012.94 1013.38 1013.78 1014.10 1014.34 1014.62 1014.90 1015.10 1015.26 1015.38 1015.58 1015.74 1015.90 1016.18 1016.38 1016.62 1016.94 1017.22 1017.34 1017.46 1017.66 1017.86 1018.06 1018.22 1018.38 1018.46 1018.46 1018.54 1018.62 1018.74 1018.90 1019.10 1019.30 1019.46 1019.62 1019.78 1019.90 1019.94 1019.98 1020.06 1020.18 1020.30 1020.46 1020.50 1020.58 1020.62 1020.70 1020.74 1020.86 1020.94 1021.02 1021.18
1008.78 1009.02 1009.30 1009.58 1009.90 1010.06 1010.22 1010.34 1010.42 1010.54 1010.78 1011.10 1011.46 1011.74 1011.98 1012.26 1012.62 1013.02 1013.46 1013.78 1014.06 1014.34 1014.66 1014.90 1015.10 1015.26 1015.34 1015.54 1015.74 1016.06 1016.34 1016.58 1016.74 1016.98 1017.14 1017.22 1017.38 1017.58 1017.86 1018.06 1018.26 1018.38 1018.46 1018.50 1018.54 1018.66 1018.82 1019.02 1019.22 1019.42 1019.58 1019.66 1019.82 1019.94 1020.02 1020.02 1020.10 1020.22 1020.30 1020.38 1020.46 1020.54 1020.62 1020.70 1020.78 1020.86 1020.90 1021.02 1021.10
1008.66 1008.98 1009.30 1009.58 1009.90 1010.14 1010.34 1010.58 1010.70 1010.78 1010.94 1011.22 1011.54 1011.82 1012.10 1012.42 1012.82 1013.18 1013.54 1013.82 1014.10 1014.42 1014.70 1014.90 1015.18 1015.34 1015.46 1015.66 1015.94 1016.26 1016.50 1016.70 1016.86 1016.98 1017.10 1017.22 1017.38 1017.62 1017.90 1018.14 1018.30 1018.46 1018.50 1018.54 1018.62 1018.74 1018.90 1019.14 1019.34 1019.54 1019.66 1019.78 1019.90 1020.02 1020.06 1020.06 1020.14 1020.22 1020.30 1020.38 1020.46 1020.54 1020.62 1020.70 1020.74 1020.82 1020.90 1020.98 1021.06
1008.66 1008.98 1009.30 1009.58 1009.90 1010.18 1010.38 1010.62 1010.82 1010.90 1011.06 1011.34 1011.62 1011.94 1012.26 1012.62 1013.02 1013.38 1013.66 1013.90 1014.22 1014.54 1014.82 1015.10 1015.38 1015.58 1015.74 1015.90 1016.18 1016.42 1016.62 1016.78 1016.90 1017.02 1017.18 1017.30 1017.54 1017.78 1018.06 1018.30 1018.46 1018.54 1018.58 1018.62 1018.66 1018.82 1019.02 1019.22 1019.42 1019.62 1019.78 1019.90 1020.02 1020.06 1020.14 1020.18 1020.22 1020.30 1020.34 1020.46 1020.50 1020.62 1020.66 1020.74 1020.78 1020.86 1020.90 1020.98 1021.02
1008.74 1009.06 1009.42 1009.74 1010.02 1010.30 1010.50 1010.70 1010.90 1011.02 1011.18 1011.46 1011.74 1012.10 1012.46 1012.90 1013.26 1013.54 1013.78 1014.06 1014.38 1014.74 1015.02 1015.34 1015.62 1015.86 1016.02 1016.22 1016.42 1016.62 1016.74 1016.90 1017.02 1017.14 1017.30 1017.54 1017.74 1018.02 1018.34 1018.58 1018.62 1018.66 1018.66 1018.70 1018.74 1018.90 1019.10 1019.30 1019.50 1019.74 1019.90 1020.06 1020.14 1020.18 1020.18 1020.22 1020.30 1020.34 1020.46 1020.54 1020.62 1020.66 1020.74 1020.74 1020.78 1020.86 1020.90 1020.98 1021.02
1008.90 1009.22 1009.54 1009.90 1010.18 1010.46 1010.70 1010.90 1011.02 1011.18 1011.38 1011.62 1011.90 1012.30 1012.74 1013.14 1013.46 1013.74 1013.98 1014.26 1014.54 1014.90 1015.22 1015.50 1015.74 1016.02 1016.22 1016.38 1016.58 1016.70 1016.82 1016.98 1017.18 1017.30 1017.54 1017.78 1018.02 1018.34 1018.62 1018.78 1018.78 1018.74 1018.74 1018.78 1018.90 1019.02 1019.18 1019.42 1019.58 1019.78 1019.94 1020.10 1020.18 1020.22 1020.26 1020.30 1020.34 1020.38 1020.46 1020.58 1020.62 1020.70 1020.74 1020.78 1020.82 1020.86 1020.90 1020.98 1021.02
1009.18 1009.46 1009.74 1010.02 1010.30 1010.62 1010.90 1011.06 1011.22 1011.38 1011.58 1011.86 1012.18 1012.54 1012.94 1013.30 1013.62 1013.90 1014.14 1014.38 1014.62 1014.94 1015.26 1015.58 1015.78 1016.02 1016.18 1016.38 1016.58 1016.74 1016.86 1017.06 1017.30 1017.54 1017.82 1018.10 1018.38 1018.62 1018.86 1018.90 1018.90 1018.86 1018.86 1018.90 1018.98 1019.14 1019.30 1019.50 1019.66 1019.82 1019.98 1020.10 1020.18 1020.26 1020.30 1020.30 1020.38 1020.42 1020.46 1020.58 1020.62 1020.70 1020.74 1020.74 1020.78 1020.82 1020.90 1020.90 1020.98
1009.42 1009.70 1009.94 1010.18 1010.46 1010.70 1010.94 1011.18 1011.34 1011.58 1011.78 1012.06 1012.38 1012.74 1013.06 1013.42 1013.74 1013.98 1014.18 1014.42 1014.70 1014.98 1015.26 1015.54 1015.74 1015.98 1016.22 1016.46 1016.62 1016.74 1016.98 1017.22 1017.46 1017.74 1018.02 1018.38 1018.62 1018.86 1018.94 1018.98 1018.94 1018.90 1018.90 1018.94 1019.10 1019.30 1019.46 1019.58 1019.74 1019.86 1019.98 1020.10 1020.18 1020.26 1020.30 1020.34 1020.38 1020.42 1020.46 1020.50 1020.58 1020.62 1020.66 1020.70 1020.74 1020.74 1020.78 1020.86 1020.90
1009.54 1009.86 1010.10 1010.30 1010.50 1010.74 1011.02 1011.18 1011.46 1011.70 1011.98 1012.22 1012.54 1012.90 1013.18 1013.46 1013.78 1014.02 1014.26 1014.46 1014.74 1015.06 1015.30 1015.58 1015.82 1016.02 1016.30 1016.50 1016.70 1016.90 1017.10 1017.34 1017.58 1017.90 1018.22 1018.54 1018.74 1018.90 1019.02 1019.02 1018.98 1018.94 1018.94 1019.06 1019.26 1019.46 1019.62 1019.74 1019.86 1019.94 1020.02 1020.10 1020.18 1020.30 1020.30 1020.34 1020.38 1020.42 1020.46 1020.46 1020.50 1020.54 1020.58 1020.58 1020.62 1020.66 1020.74 1020.74 1020.78
1009.58 1009.90 1010.18 1010.38 1010.58 1010.78 1011.02 1011.26 1011.54 1011.82 1012.10 1012.38 1012.70 1013.02 1013.30 1013.58 1013.86 1014.10 1014.34 1014.62 1014.90 1015.18 1015.46 1015.70 1015.94 1016.18 1016.38 1016.62 1016.78 1016.98 1017.18 1017.42 1017.74 1018.10 1018.38 1018.58 1018.74 1018.90 1019.02 1019.02 1018.98 1018.98 1019.02 1019.18 1019.42 1019.62 1019.78 1019.90 1019.98 1020.02 1020.10 1020.18 1020.26 1020.30 1020.30 1020.34 1020.38 1020.42 1020.46 1020.46 1020.46 1020.50 1020.50 1020.54 1020.58 1020.62 1020.62 1020.66 1020.66
1009.62 1009.94 1010.22 1010.46 1010.70 1010.90 1011.14 1011.38 1011.66 1011.94 1012.26 1012.54 1012.86 1013.18 1013.46 1013.70 1013.94 1014.18 1014.46 1014.78 1015.10 1015.34 1015.58 1015.86 1016.06 1016.30 1016.46 1016.62 1016.86 1017.02 1017.26 1017.54 1017.90 1018.22 1018.46 1018.62 1018.74 1018.90 1018.98 1018.98 1018.98 1019.02 1019.14 1019.34 1019.58 1019.74 1019.90 1019.98 1020.02 1020.10 1020.18 1020.18 1020.26 1020.30 1020.34 1020.38 1020.42 1020.42 1020.46 1020.46 1020.50 1020.50 1020.54 1020.58 1020.62 1020.62 1020.62 1020.62 1020.62
1009.70 1009.98 1010.30 1010.54 1010.78 1011.02 1011.30 1011.58 1011.86 1012.18 1012.46 1012.74 1013.02 1013.34 1013.62 1013.90 1014.14 1014.34 1014.62 1014.94 1015.30 1015.58 1015.78 1015.94 1016.18 1016.38 1016.58 1016.74 1016.94 1017.18 1017.46 1017.74 1018.06 1018.30 1018.46 1018.62 1018.78 1018.90 1018.90 1018.90 1018.98 1019.10 1019.30 1019.50 1019.70 1019.86 1019.98 1020.02 1020.10 1020.14 1020.18 1020.22 1020.30 1020.34 1020.42 1020.42 1020.46 1020.46 1020.46 1020.50 1020.58 1020.62 1020.62 1020.62 1020.62 1020.66 1020.62 1020.62 1020.62
1009.86 1010.10 1010.38 1010.66 1010.90 1011.18 1011.46 1011.78 1012.10 1012.42 1012.70 1012.98 1013.30 1013.58 1013.86 1014.14 1014.34 1014.58 1014.86 1015.14 1015.46 1015.74 1015.90 1016.06 1016.26 1016.46 1016.70 1016.90 1017.14 1017.46 1017.74 1017.98 1018.22 1018.38 1018.50 1018.62 1018.78 1018.86 1018.86 1018.90 1019.02 1019.22 1019.46 1019.66 1019.82 1019.90 1020.02 1020.06 1020.18 1020.18 1020.22 1020.26 1020.30 1020.38 1020.42 1020.46 1020.46 1020.50 1020.54 1020.54 1020.58 1020.62 1020.66 1020.66 1020.70 1020.66 1020.66 1020.66 1020.62
1010.02 1010.26 1010.50 1010.82 1011.10 1011.42 1011.74 1012.02 1012.30 1012.62 1012.90 1013.22 1013.54 1013.82 1014.06 1014.34 1014.58 1014.82 1015.10 1015.38 1015.66 1015.90 1016.10 1016.26 1016.46 1016.62 1016.82 1017.06 1017.34 1017.66 1017.94 1018.18 1018.34 1018.46 1018.54 1018.66 1018.74 1018.78 1018.82 1018.90 1019.06 1019.30 1019.58 1019.82 1019.94 1020.02 1020.10 1020.14 1020.18 1020.22 1020.26 1020.30 1020.34 1020.38 1020.42 1020.46 1020.50 1020.54 1020.58 1020.62 1020.62 1020.66 1020.66 1020.66 1020.66 1020.66 1020.62 1020.62 1020.62
1010.18 1010.42 1010.70 1011.02 1011.34 1011.66 1011.98 1012.26 1012.58 1012.86 1013.18 1013.50 1013.78 1014.06 1014.30 1014.58 1014.82 1015.10 1015.38 1015.66 1015.90 1016.10 1016.30 1016.46 1016.62 1016.82 1017.02 1017.26 1017.50 1017.82 1018.14 1018.34 1018.46 1018.58 1018.62 1018.62 1018.70 1018.74 1018.82 1019.02 1019.22 1019.50 1019.74 1019.90 1020.02 1020.06 1020.14 1020.18 1020.18 1020.26 1020.30 1020.30 1020.34 1020.42 1020.46 1020.50 1020.54 1020.58 1020.62 1020.66 1020.70 1020.66 1020.70 1020.70 1020.62 1020.62 1020.62 1020.58 1020.58
1010.34 1010.62 1010.94 1011.30 1011.62 1011.90 1012.18 1012.50 1012.78 1013.10 1013.42 1013.74 1014.02 1014.30 1014.54 1014.82 1015.10 1015.38 1015.66 1015.90 1016.06 1016.30 1016.50 1016.74 1016.90 1017.10 1017.30 1017.50 1017.74 1017.98 1018.22 1018.42 1018.54 1018.62 1018.62 1018.62 1018.66 1018.78 1018.98 1019.18 1019.42 1019.62 1019.82 1019.94 1020.02 1020.06 1020.14 1020.18 1020.22 1020.26 1020.30 1020.30 1020.38 1020.42 1020.46 1020.54 1020.62 1020.62 1020.70 1020.74 1020.74 1020.74 1020.74 1020.70 1020.62 1020.62 1020.58 1020.54 1020.50
1010.58 1010.90 1011.22 1011.54 1011.82 1012.14 1012.46 1012.74 1013.02 1013.34 1013.66 1013.94 1014.22 1014.50 1014.82 1015.10 1015.34 1015.58 1015.82 1016.02 1016.26 1016.50 1016.74 1016.98 1017.22 1017.42 1017.58 1017.78 1017.98 1018.14 1018.30 1018.42 1018.46 1018.50 1018.54 1018.62 1018.70 1018.90 1019.14 1019.34 1019.54 1019.74 1019.86 1019.90 1019.90 1019.90 1019.98 1020.06 1020.14 1020.18 1020.26 1020.30 1020.38 1020.46 1020.46 1020.58 1020.62 1020.70 1020.74 1020.78 1020.82 1020.78 1020.74 1020.74 1020.66 1020.62 1020.58 1020.54 1020.50
1010.90 1011.18 1011.50 1011.78 1012.06 1012.38 1012.70 1013.02 1013.30 1013.58 1013.90 1014.18 1014.46 1014.78 1015.06 1015.30 1015.54 1015.74 1015.98 1016.22 1016.46 1016.74 1016.98 1017.22 1017.46 1017.70 1017.90 1018.06 1018.18 1018.30 1018.34 1018.38 1018.34 1018.34 1018.42 1018.62 1018.82 1019.02 1019.26 1019.46 1019.62 1019.78 1019.86 1019.86 1019.86 1019.90 1019.90 1019.98 1020.02 1020.14 1020.22 1020.34 1020.42 1020.46 1020.54 1020.62 1020.70 1020.74 1020.78 1020.82 1020.86 1020.86 1020.86 1020.82 1020.74 1020.66 1020.62 1020.58 1020.54
1011.18 1011.46 1011.78 1012.06 1012.34 1012.70 1013.02 1013.30 1013.54 1013.82 1014.14 1014.46 1014.82 1015.06 1015.30 1015.50 1015.74 1015.98 1016.18 1016.42 1016.66 1016.90 1017.14 1017.46 1017.74 1017.98 1018.14 1018.22 1018.26 1018.30 1018.38 1018.34 1018.30 1018.34 1018.46 1018.66 1018.90 1019.18 1019.38 1019.58 1019.70 1019.82 1019.86 1019.82 1019.82 1019.90 1019.94 1019.98 1020.02 1020.14 1020.22 1020.38 1020.46 1020.54 1020.62 1020.70 1020.74 1020.78 1020.82 1020.86 1020.86 1020.86 1020.90 1020.90 1020.82 1020.74 1020.70 1020.62 1020.54
1011.50 1011.78 1012.06 1012.38 1012.70 1013.02 1013.30 1013.50 1013.78 1014.10 1014.46 1014.74 1015.06 1015.30 1015.54 1015.74 1016.02 1016.22 1016.46 1016.62 1016.82 1017.06 1017.38 1017.70 1017.94 1018.14 1018.18 1018.26 1018.30 1018.30 1018.30 1018.30 1018.34 1018.46 1018.58 1018.78 1019.02 1019.26 1019.46 1019.58 1019.74 1019.78 1019.78 1019.82 1019.86 1019.90 1020.02 1020.06 1020.10 1020.14 1020.18 1020.30 1020.46 1020.62 1020.66 1020.74 1020.74 1020.82 1020.86 1020.86 1020.90 1020.90 1020.90 1020.86 1020.78 1020.74 1020.74 1020.70 1020.62
1011.86 1012.14 1012.42 1012.74 1013.02 1013.30 1013.54 1013.82 1014.10 1014.42 1014.70 1015.02 1015.26 1015.50 1015.74 1016.02 1016.22 1016.46 1016.66 1016.86 1017.06 1017.34 1017.62 1017.90 1018.06 1018.18 1018.30 1018.34 1018.38 1018.34 1018.30 1018.38 1018.46 1018.54 1018.74 1018.90 1019.14 1019.30 1019.46 1019.58 1019.70 1019.74 1019.78 1019.82 1019.90 1019.94 1020.02 1020.10 1020.14 1020.18 1020.18 1020.30 1020.46 1020.62 1020.70 1020.74 1020.78 1020.82 1020.82 1020.86 1020.82 1020.82 1020.82 1020.78 1020.74 1020.70 1020.70 1020.66 1020.62
1012.22 1012.50 1012.78 1013.06 1013.30 1013.58 1013.86 1014.14 1014.46 1014.74 1015.02 1015.22 1015.46 1015.66 1015.94 1016.18 1016.38 1016.62 1016.90 1017.14 1017.38 1017.58 1017.78 1017.98 1018.14 1018.26 1018.34 1018.38 1018.38 1018.38 1018.46 1018.50 1018.62 1018.70 1018.86 1019.02 1019.22 1019.42 1019.54 1019.58 1019.70 1019.74 1019.78 1019.86 1019.94 1020.02 1020.06 1020.18 1020.18 1020.18 1020.22 1020.30 1020.46 1020.62 1020.74 1020.78 1020.82 1020.82 1020.86 1020.82 1020.78 1020.78 1020.78 1020.74 1020.70 1020.66 1020.62 1020.62 1020.62
1012.62 1012.90 1013.14 1013.38 1013.62 1013.94 1014.26 1014.58 1014.82 1015.02 1015.22 1015.42 1015.62 1015.90 1016.14 1016.38 1016.62 1016.90 1017.14 1017.38 1017.58 1017.78 1017.94 1018.06 1018.18 1018.30 1018.34 1018.38 1018.42 1018.46 1018.58 1018.62 1018.74 1018.82 1018.94 1019.10 1019.26 1019.42 1019.54 1019.62 1019.74 1019.78 1019.82 1019.90 1019.94 1020.02 1020.10 1020.18 1020.18 1020.22 1020.26 1020.30 1020.50 1020.62 1020.74 1020.78 1020.82 1020.82 1020.86 1020.82 1020.78 1020.74 1020.74 1020.70 1020.62 1020.62 1020.62 1020.62 1020.62
1013.02 1013.22 1013.46 1013.74 1014.02 1014.34 1014.66 1014.94 1015.18 1015.34 1015.54 1015.70 1015.90 1016.18 1016.42 1016.70 1017.02 1017.26 1017.46 1017.58 1017.78 1017.94 1018.10 1018.18 1018.26 1018.34 1018.46 1018.46 1018.54 1018.62 1018.66 1018.74 1018.82 1018.94 1019.02 1019.18 1019.30 1019.46 1019.58 1019.66 1019.74 1019.86 1019.90 1019.90 1020.02 1020.06 1020.10 1020.18 1020.22 1020.30 1020.30 1020.34 1020.54 1020.66 1020.74 1020.78 1020.82 1020.82 1020.82 1020.82 1020.74 1020.74 1020.70 1020.66 1020.62 1020.62 1020.58 1020.62 1020.62
1013.46 1013.62 1013.86 1014.14 1014.46 1014.74 1015.02 1015.30 1015.46 1015.66 1015.86 1016.02 1016.26 1016.50 1016.74 1017.02 1017.26 1017.46 1017.66 1017.82 1017.94 1018.06 1018.18 1018.22 1018.30 1018.38 1018.46 1018.54 1018.62 1018.66 1018.74 1018.82 1018.90 1019.02 1019.10 1019.22 1019.38 1019.50 1019.62 1019.74 1019.82 1019.90 1019.90 1019.98 1020.02 1020.06 1020.14 1020.18 1020.26 1020.30 1020.30 1020.38 1020.58 1020.74 1020.78 1020.82 1020.78 1020.78 1020.78 1020.74 1020.74 1020.70 1020.66 1020.66 1020.62 1020.62 1020.62 1020.62 1020.62
1013.82 1014.02 1014.30 1014.54 1014.82 1015.10 1015.34 1015.58 1015.78 1015.98 1016.18 1016.34 1016.62 1016.86 1017.06 1017.26 1017.38 1017.58 1017.74 1017.94 1018.02 1018.18 1018.22 1018.26 1018.34 1018.42 1018.50 1018.58 1018.62 1018.74 1018.82 1018.90 1019.02 1019.10 1019.22 1019.38 1019.46 1019.62 1019.74 1019.86 1019.90 1019.90 1019.90 1019.98 1020.02 1020.14 1020.18 1020.22 1020.26 1020.30 1020.34 1020.42 1020.62 1020.74 1020.78 1020.82 1020.82 1020.82 1020.82 1020.78 1020.74 1020.66 1020.62 1020.66 1020.62 1020.62 1020.62 1020.58 1020.50
1014.18 1014.30 1014.58 1014.90 1015.18 1015.42 1015.66 1015.90 1016.10 1016.30 1016.50 1016.70 1016.90 1017.06 1017.22 1017.34 1017.46 1017.58 1017.78 1017.94 1018.10 1018.22 1018.30 1018.42 1018.46 1018.50 1018.58 1018.66 1018.74 1018.78 1018.90 1018.98 1019.10 1019.22 1019.38 1019.50 1019.58 1019.74 1019.86 1019.98 1020.02 1019.94 1019.94 1020.02 1020.10 1020.18 1020.26 1020.30 1020.30 1020.30 1020.38 1020.54 1020.70 1020.78 1020.82 1020.86 1020.86 1020.86 1020.86 1020.78 1020.74 1020.70 1020.66 1020.66 1020.62 1020.62 1020.62 1020.58 1020.46
1014.58 1014.62 1014.74 1015.06 1015.42 1015.74 1016.02 1016.26 1016.46 1016.62 1016.78 1016.90 1017.02 1017.18 1017.30 1017.46 1017.58 1017.70 1017.82 1017.98 1018.14 1018.26 1018.42 1018.50 1018.58 1018.62 1018.70 1018.78 1018.82 1018.90 1019.02 1019.10 1019.26 1019.38 1019.50 1019.58 1019.70 1019.86 1019.98 1020.06 1020.10 1020.02 1020.02 1020.02 1020.10 1020.18 1020.22 1020.30 1020.30 1020.30 1020.42 1020.62 1020.74 1020.82 1020.82 1020.86 1020.90 1020.90 1020.90 1020.82 1020.78 1020.74 1020.70 1020.66 1020.62 1020.62 1020.58 1020.50 1020.46
1014.94 1014.90 1015.02 1015.22 1015.58 1015.98 1016.30 1016.50 1016.66 1016.74 1016.90 1017.02 1017.14 1017.26 1017.38 1017.54 1017.70 1017.86 1017.94 1018.02 1018.18 1018.34 1018.46 1018.54 1018.62 1018.74 1018.78 1018.90 1018.94 1019.06 1019.18 1019.26 1019.34 1019.46 1019.58 1019.62 1019.74 1019.90 1020.02 1020.14 1020.18 1020.18 1020.14 1020.06 1020.14 1020.18 1020.26 1020.30 1020.30 1020.30 1020.46 1020.62 1020.74 1020.82 1020.90 1020.90 1020.90 1020.90 1020.86 1020.86 1020.82 1020.78 1020.74 1020.70 1020.62 1020.62 1020.54 1020.46 1020.34
1015.30 1015.30 1015.30 1015.42 1015.74 1016.06 1016.38 1016.58 1016.70 1016.82 1016.98 1017.14 1017.30 1017.42 1017.54 1017.66 1017.86 1017.98 1018.06 1018.14 1018.26 1018.42 1018.54 1018.62 1018.70 1018.78 1018.86 1018.94 1019.02 1019.14 1019.22 1019.30 1019.42 1019.54 1019.66 1019.74 1019.86 1019.98 1020.10 1020.18 1020.26 1020.30 1020.26 1020.14 1020.14 1020.18 1020.26 1020.30 1020.30 1020.30 1020.46 1020.66 1020.74 1020.86 1020.90 1020.90 1020.90 1020.90 1020.86 1020.86 1020.86 1020.82 1020.74 1020.74 1020.66 1020.62 1020.54 1020.46 1020.26
1015.50 1015.54 1015.54 1015.58 1015.82 1016.14 1016.46 1016.66 1016.86 1017.02 1017.18 1017.34 1017.46 1017.58 1017.70 1017.82 1017.94 1018.06 1018.18 1018.22 1018.30 1018.42 1018.54 1018.66 1018.74 1018.86 1018.90 1019.02 1019.10 1019.22 1019.30 1019.38 1019.46 1019.58 1019.74 1019.86 1019.94 1020.02 1020.10 1020.22 1020.30 1020.38 1020.30 1020.18 1020.18 1020.18 1020.22 1020.30 1020.30 1020.30 1020.46 1020.66 1020.78 1020.86 1020.90 1020.90 1020.90 1020.90 1020.90 1020.90 1020.90 1020.86 1020.78 1020.74 1020.66 1020.62 1020.54 1020.46 1020.26
1015.74 1015.78 1015.82 1015.90 1016.06 1016.30 1016.62 1016.90 1017.14 1017.30 1017.42 1017.50 1017.62 1017.74 1017.82 1017.90 1018.02 1018.14 1018.22 1018.30 1018.38 1018.46 1018.58 1018.70 1018.82 1018.90 1018.98 1019.02 1019.18 1019.34 1019.46 1019.54 1019.62 1019.70 1019.78 1019.90 1019.94 1020.02 1020.06 1020.26 1020.38 1020.42 1020.34 1020.22 1020.18 1020.22 1020.26 1020.30 1020.30 1020.30 1020.46 1020.70 1020.74 1020.78 1020.82 1020.86 1020.90 1020.94 1020.98 1020.94 1020.94 1020.90 1020.86 1020.74 1020.70 1020.62 1020.58 1020.46 1020.34
1015.98 1016.06 1016.18 1016.26 1016.42 1016.62 1016.90 1017.14 1017.34 1017.50 1017.58 1017.62 1017.74 1017.82 1017.90 1017.98 1018.10 1018.18 1018.30 1018.38 1018.50 1018.62 1018.70 1018.82 1018.94 1019.02 1019.10 1019.18 1019.30 1019.46 1019.58 1019.70 1019.82 1019.86 1019.90 1019.90 1019.94 1020.02 1020.10 1020.26 1020.38 1020.46 1020.42 1020.30 1020.26 1020.22 1020.26 1020.30 1020.30 1020.30 1020.42 1020.62 1020.70 1020.74 1020.78 1020.86 1020.94 1021.02 1021.02 1021.02 1020.98 1020.90 1020.90 1020.82 1020.74 1020.62 1020.58 1020.50 1020.42
Wind_Speed
10 10 10 10 10 9 8 7 8 8 8 8 8 8 8 8 8 8 7 6 6 6 6 6 6 6 8 10 11 11 10 10 10 10 10 10 10 9 9 9 8 8 8 7 6 6 6 6 5 4 3 3 3 3 2 2 3 3 3 3 3 3 3 4 3 2 2 2 1
11 11 11 11 10 9 8 8 8 8 7 7 8 8 8 8 8 8 7 6 6 6 6 6 6 6 8 10 10 10 10 11 11 11 10 10 10 10 9 9 8 8 8 7 6 6 5 5 5 4 3 3 3 3 2 2 3 3 4 3 2 3 3 3 3 3 3 2 2
12 12 12 12 11 10 9 9 9 9 9 7 7 7 7 7 7 7 7 7 6 6 5 5 6 7 8 9 9 9 10 11 11 11 10 10 10 9 9 8 8 8 7 7 6 6 5 6 5 5 4 3 3 3 2 2 2 3 3 3 2 2 2 2 2 2 2 2 2
12 12 12 13 13 13 12 10 11 11 10 8 8 7 7 6 6 7 7 8 7 6 5 5 6 7 8 8 9 9 9 10 11 11 11 9 9 9 9 9 8 8 7 6 6 6 6 6 5 4 4 4 4 3 2 2 2 3 2 2 2 2 2 2 2 2 2 2 2
11 11 11 12 14 13 12 11 12 12 11 9 9 8 8 7 7 7 8 8 7 6 6 7 7 7 7 8 9 9 10 10 11 10 10 9 9 9 9 9 8 7 7 6 6 6 6 6 4 3 3 3 3 3 3 3 3 3 2 2 2 2 2 2 2 2 2 2 1
11 11 10 10 12 11 11 11 13 12 11 10 10 10 9 8 8 8 9 8 7 8 9 10 9 8 8 9 10 10 9 9 10 10 10 9 8 8 9 9 8 7 6 6 7 7 6 6 4 3 3 3 2 2 2 4 4 3 2 2 1 1 2 2 2 2 2 2 1
12 11 11 10 11 11 11 12 12 12 11 10 12 12 12 11 10 10 10 8 8 9 9 10 10 9 9 10 10 10 9 9 9 10 10 9 8 8 8 8 7 7 6 6 7 6 6 6 4 3 3 3 2 2 2 3 4 4 3 2 1 1 1 2 2 2 2 2 2
12 11 11 11 11 11 12 13 12 12 11 10 12 13 13 12 12 12 11 10 9 9 9 9 9 10 10 10 10 10 10 10 10 10 9 9 9 8 8 8 8 7 7 7 7 6 6 5 4 3 3 3 2 2 3 4 4 4 3 2 1 1 1 1 1 2 2 3 2
11 11 11 11 11 11 12 12 12 12 11 11 12 13 13 12 13 13 12 10 10 10 9 8 9 10 10 10 10 10 10 10 10 10 10 9 9 9 8 8 7 7 6 6 7 7 6 5 4 3 3 2 2 2 3 4 4 4 3 2 1 1 1 1 2 2 2 3 2
12 12 12 12 12 12 11 11 11 11 12 12 12 12 12 12 12 12 11 10 11 11 10 8 9 10 11 11 10 10 9 9 10 10 10 10 10 9 8 7 7 7 6 5 6 6 6 5 4 3 2 2 3 3 3 3 4 4 3 2 2 1 1 1 2 2 2 2 2
14 13 13 12 13 13 12 11 10 10 11 12 12 12 12 12 12 11 10 10 12 12 12 11 11 12 11 11 10 10 9 9 9 10 10 10 9 9 8 7 7 6 6 5 5 5 5 4 4 3 3 2 2 3 3 3 4 4 3 2 2 1 1 0 1 2 2 2 2
14 14 13 13 13 13 12 11 10 10 11 12 12 12 11 11 11 11 11 12 13 13 12 12 12 12 11 9 9 9 9 9 9 9 9 9 9 8 7 6 6 6 6 5 5 4 4 4 4 4 3 2 2 2 2 3 3 3 3 2 2 1 1 1 0 1 2 2 2
14 14 13 13 13 12 12 11 10 10 11 12 12 11 11 11 11 11 12 13 13 12 11 12 11 10 9 8 8 8 8 8 9 9 9 9 8 8 7 6 6 6 6 5 5 5 5 5 5 4 3 2 2 2 2 3 3 3 3 2 2 1 1 1 1 1 2 2 2
14 14 14 13 13 11 10 10 9 10 11 12 12 11 11 11 11 11 11 12 12 12 11 10 9 8 8 8 8 8 8 8 9 9 9 8 8 7 6 5 5 5 5 5 5 5 6 5 5 4 4 3 2 2 2 3 3 3 3 2 2 1 1 2 1 1 2 2 2
14 14 14 13 12 11 10 10 9 9 11 12 12 12 12 12 12 11 11 11 12 11 10 9 8 8 9 9 9 9 9 9 9 9 9 9 8 7 6 5 5 6 6 6 5 5 5 5 4 4 4 3 2 2 2 2 3 3 2 2 2 2 2 2 2 2 2 2 2
14 14 13 13 12 11 10 10 9 10 11 12 12 12 12 12 12 11 11 11 11 10 9 10 9 9 9 10 10 10 9 9 10 10 9 8 7 6 6 6 6 6 6 7 6 5 4 4 4 4 3 3 3 2 2 2 2 2 2 2 2 2 2 2 2 2 3 3 2
14 13 12 12 12 12 11 11 10 10 11 13 13 13 13 12 11 11 11 12 10 10 11 11 10 9 9 10 10 9 9 10 9 9 8 8 7 7 6 6 6 6 7 7 6 5 4 3 3 3 3 3 2 2 2 1 1 1 1 1 1 2 2 2 3 3 3 3 3
14 13 12 12 12 13 13 13 12 13 13 14 13 13 12 11 11 11 11 12 12 12 13 12 11 10 10 10 9 9 8 9 9 9 8 8 7 7 6 6 6 6 7 7 6 5 5 4 4 3 3 3 2 2 1 1 1 0 0 1 1 1 2 2 2 3 3 3 4
14 13 13 13 14 14 14 15 15 15 15 14 13 12 12 12 12 12 12 13 13 14 14 13 11 11 11 11 10 9 9 9 9 9 8 8 7 7 6 6 7 7 8 7 7 6 5 5 4 4 4 3 3 2 2 1 1 1 1 1 1 1 1 2 2 2 2 3 3
14 14 14 14 15 15 16 16 16 15 14 13 14 14 13 13 13 13 14 14 13 13 13 12 11 11 11 11 11 10 9 8 9 9 8 8 7 7 7 7 8 8 8 7 7 6 6 5 5 5 4 4 4 3 3 3 3 2 2 2 2 2 2 2 1 1 1 2 2
15 15 15 16 16 16 16 16 15 15 15 15 15 15 14 14 14 14 14 14 13 13 12 12 12 12 12 12 11 10 9 8 8 9 8 8 8 7 7 8 8 8 8 7 6 6 6 6 5 5 5 4 4 4 4 4 4 4 3 3 3 3 2 2 2 1 1 1 2
15 16 16 16 16 16 16 16 15 16 16 16 16 15 14 14 14 14 14 13 12 12 11 11 11 12 12 12 11 10 9 8 8 8 8 8 7 7 8 8 9 8 7 7 6 6 5 5 5 5 4 4 4 4 4 4 4 4 4 5 4 4 4 3 2 2 2 2 2
16 16 16 16 16 17 16 16 16 16 16 16 16 15 15 15 15 14 13 12 12 11 11 11 11 11 12 11 11 11 10 8 8 7 7 7 8 8 8 8 8 8 7 5 5 5 5 4 4 4 4 4 4 4 4 4 4 4 5 5 5 5 5 4 4 3 3 2 2
17 16 15 15 16 16 16 16 16 16 16 16 16 16 16 16 15 14 13 12 12 11 11 10 10 11 11 11 11 11 10 10 9 8 8 8 9 9 8 8 7 6 5 4 5 5 4 3 3 3 3 3 3 3 3 3 4 4 4 4 5 5 5 5 4 4 4 4 3
17 17 16 15 16 16 16 16 16 16 16 16 16 17 17 16 15 14 13 13 12 12 12 11 11 10 10 10 10 10 10 10 9 9 9 9 9 8 8 7 5 4 4 4 6 7 6 5 4 3 3 3 3 3 3 3 3 3 3 3 4 4 5 5 5 5 5 5 4
17 16 16 16 16 16 17 17 17 17 17 17 17 17 16 15 14 14 13 13 13 12 12 11 11 10 9 9 9 9 8 8 8 9 9 9 9 8 7 6 4 3 4 5 7 7 7 6 5 4 3 2 2 2 2 2 2 2 2 3 3 3 4 5 5 5 5 5 4
16 16 17 17 17 17 17 16 17 17 17 17 17 16 15 14 13 13 14 13 13 12 12 11 10 9 9 8 9 8 8 7 7 8 9 9 9 8 7 5 4 3 4 6 7 7 7 6 5 5 4 3 3 2 2 2 2 2 2 2 2 3 3 4 5 5 5 5 4
16 17 17 17 17 17 17 16 17 17 17 17 16 16 15 14 14 14 13 13 12 12 10 9 8 7 6 6 7 8 8 7 7 8 8 9 8 8 6 5 4 4 5 7 7 7 7 6 5 5 4 4 3 2 1 1 2 2 2 2 2 3 3 4 4 5 5 5 5
17 17 18 18 17 17 16 17 17 17 17 17 16 16 15 14 14 13 13 12 12 10 9 7 6 5 5 6 7 7 7 7 7 7 7 8 8 7 6 5 4 5 6 7 7 7 6 6 5 5 5 5 3 2 1 1 1 2 2 2 3 3 4 4 5 5 5 5 5
17 17 17 17 17 16 16 16 17 17 16 16 16 15 15 14 13 13 12 12 10 9 7 6 6 6 7 7 7 7 7 6 6 7 7 8 7 6 6 5 4 4 5 6 6 6 6 6 6 6 6 6 4 3 1 1 1 1 2 3 3 4 4 5 5 6 6 5 4
17 17 17 17 17 17 17 17 16 16 16 15 15 15 14 14 13 12 11 9 8 8 7 7 7 8 8 7 6 6 6 6 6 6 7 7 7 6 5 5 4 4 5 6 6 6 6 6 6 6 6 6 5 3 2 1 1 2 2 3 4 4 5 5 5 6 5 4 3
16 16 17 17 17 17 16 16 16 15 15 15 15 14 14 13 11 10 9 8 8 8 8 8 9 9 8 7 6 6 6 6 6 6 6 6 5 5 4 5 4 4 5 5 5 5 6 6 6 6 6 7 5 4 2 2 2 2 2 3 4 5 5 5 5 5 4 3 2
15 15 16 16 16 16 16 16 15 15 14 14 14 14 13 12 10 9 9 8 8 8 8 8 9 9 8 7 6 6 6 6 6 6 6 5 5 4 4 4 4 4 5 5 5 5 6 6 6 6 6 7 5 3 2 2 2 2 3 3 4 4 4 4 4 3 3 2 2
15 15 15 15 15 15 15 15 14 14 14 14 13 13 12 11 11 10 9 8 7 7 7 7 7 7 6 6 6 6 6 6 5 5 5 5 5 5 4 3 2 3 5 5 5 5 5 5 5 6 6 7 5 3 2 3 3 3 3 4 4 4 4 4 3 2 2 1 1
15 15 16 15 14 14 14 14 13 13 13 13 12 11 11 10 10 9 9 8 7 6 6 5 6 5 5 5 5 5 6 6 5 5 5 5 6 5 5 3 2 3 4 5 4 4 5 5 5 6 6 6 4 3 2 3 3 3 4 5 5 5 5 4 3 2 1 1 0
14 15 16 16 15 14 13 13 13 12 12 12 11 11 10 9 8 8 8 8 8 7 6 6 5 5 5 5 5 5 5 5 5 5 5 5 6 5 4 3 2 2 3 5 4 4 4 5 5 5 6 5 3 2 2 2 2 3 4 5 5 5 5 4 3 3 2 2 2
14 15 16 17 16 15 14 13 12 12 12 11 11 10 10 9 8 7 7 7 7 7 6 6 6 5 5 5 4 4 4 4 4 5 5 6 5 5 4 3 2 2 2 3 4 4 4 5 5 5 5 4 2 2 2 2 2 3 3 4 4 4 4 3 3 3 4 4 5
13 14 16 17 16 15 14 12 12 12 12 11 9 9 8 8 7 7 7 7 7 7 6 5 5 5 5 5 5 4 4 5 5 5 5 5 5 4 4 3 1 2 2 2 4 4 5 5 5 5 4 3 2 2 2 2 2 3 3 3 4 4 4 3 3 4 5 6 8
13 13 14 15 15 14 13 12 12 12 11 10 9 8 8 7 6 6 6 6 6 6 6 5 5 5 5 5 5 4 4 5 5 6 5 5 4 4 4 2 1 1 1 2 4 4 5 5 5 5 4 4 2 2 1 2 2 3 3 3 3 4 4 4 3 4 4 6 9
12 12 13 14 14 14 13 12 11 10 10 9 9 8 7 6 6 6 5 5 5 5 5 5 5 5 5 5 5 5 4 4 4 4 5 5 5 5 4 3 1 0 1 2 3 4 4 4 4 4 4 4 3 2 2 2 2 2 3 3 3 3 4 4 3 3 4 4 7
11 12 13 13 13 13 13 12 11 9 8 8 8 7 6 6 5 5 4 4 4 4 4 4 5 5 5 5 5 4 4 3 2 2 3 4 4 5 4 3 2 1 0 1 2 3 4 4 4 4 4 4 3 2 2 2 2 2 2 2 2 2 3 3 3 3 3 4 4
Wind_Direction
165 160 157 157 157 157 158 159 159 160 160 161 160 161 162 163 165 167 168 170 170 169 167 166 160 152 148 150 151 151 151 151 148 143 137 132 131 132 134 135 135 136 136 136 130 125 119 116 114 113 114 116 116 115 112 116 117 114 110 109 117 122 123 124 131 140 148 158 164
168 163 158 156 155 154 154 156 157 159 160 160 158 157 159 161 163 164 165 167 169 167 164 161 152 147 146 149 148 148 150 152 146 140 133 130 131 132 133 135 136 137 138 136 133 128 123 119 117 116 116 116 112 108 106 111 113 109 107 109 116 119 121 125 142 151 154 155 154
169 164 159 157 156 156 157 158 159 160 159 157 153 152 154 159 160 161 162 164 163 161 157 155 147 144 143 144 145 149 152 151 143 136 131 129 129 131 133 133 135 136 137 136 134 130 124 120 118 118 119 118 116 116 116 115 107 108 111 120 121 118 119 129 146 151 150 147 151
169 165 161 160 159 160 160 160 159 158 157 153 148 148 150 156 157 157 158 158 156 154 154 152 147 144 143 142 145 148 150 147 138 132 128 127 130 132 132 132 133 135 135 134 131 126 121 117 114 114 117 120 124 128 132 128 111 107 112 128 125 122 125 133 141 144 141 139 152
169 168 165 163 162 160 158 156 156 155 154 150 147 149 152 155 154 155 157 158 157 155 152 149 148 145 143 142 145 146 145 141 134 129 126 128 132 132 131 131 133 134 135 133 130 125 120 114 110 108 111 118 125 134 139 131 116 108 104 108 117 124 128 131 134 131 126 124 131
167 167 164 161 159 156 154 153 153 153 151 149 150 153 156 157 157 158 159 157 151 146 145 148 149 145 142 144 145 144 141 136 130 126 126 131 133 131 129 129 131 132 133 131 128 123 118 113 109 105 104 107 111 123 129 124 116 109 101 90 100 111 121 131 132 127 120 116 112
162 161 159 157 156 153 151 152 152 150 148 148 152 156 159 158 157 156 153 145 142 143 148 153 152 150 147 148 146 142 138 131 125 125 128 135 134 132 129 129 129 130 130 130 126 121 116 112 111 107 105 103 105 111 116 116 114 110 106 101 92 96 109 129 129 126 124 128 129
154 154 154 153 153 151 151 151 150 148 147 150 155 157 157 155 153 149 144 138 144 150 155 156 153 151 148 147 142 137 132 127 127 130 135 138 134 131 128 128 127 128 128 128 124 119 114 109 109 110 111 110 113 117 120 115 112 112 114 121 112 97 99 112 116 124 131 137 143
148 149 149 148 148 148 149 149 147 146 146 149 153 154 153 150 147 143 141 143 149 153 154 153 148 144 140 136 133 131 131 132 135 139 140 138 134 131 129 127 127 126 125 123 119 115 111 106 105 107 110 113 118 122 122 116 115 116 122 131 127 112 99 99 111 121 129 137 153
147 147 146 145 145 145 144 144 142 141 141 144 147 147 146 143 141 141 142 146 150 151 151 149 144 139 136 132 132 133 137 141 142 143 141 136 133 131 130 129 128 126 122 117 113 110 108 105 104 102 103 108 117 123 124 119 122 126 130 134 131 120 109 109 122 130 137 146 168
145 144 144 143 143 142 141 139 138 137 138 140 141 140 138 137 136 137 140 145 148 150 151 148 146 143 140 137 139 142 145 146 144 141 137 131 128 127 127 127 127 124 120 115 110 108 107 107 106 105 102 98 110 119 123 122 126 130 133 127 122 121 125 145 138 141 146 154 168
141 140 139 139 139 139 139 138 137 137 137 138 137 135 133 131 132 135 139 144 147 149 150 149 148 146 144 141 143 144 143 142 138 134 128 123 120 119 119 121 120 118 114 111 107 106 106 108 110 110 106 90 90 105 116 119 122 125 123 109 105 112 152 239 194 143 134 137 148
135 134 133 134 135 136 136 136 136 136 137 136 135 132 129 128 131 136 141 145 146 148 148 148 146 143 140 138 138 136 135 132 128 123 118 114 112 112 114 116 115 111 107 104 101 101 102 106 109 110 108 96 85 94 107 113 115 117 116 109 105 124 193 236 219 150 122 124 142
130 130 130 131 132 133 132 133 133 135 135 134 132 129 128 129 134 139 143 146 146 145 144 142 139 136 134 133 129 126 123 120 116 112 109 106 108 111 114 116 112 108 102 97 95 96 99 103 106 109 109 105 99 101 109 113 117 120 125 128 137 168 206 224 204 163 142 141 161
126 127 128 129 130 130 130 131 131 132 131 130 128 129 130 134 140 143 145 145 143 140 137 134 131 129 128 127 121 117 113 111 109 107 105 105 109 113 117 117 112 105 99 93 90 92 96 102 105 107 107 106 103 103 106 111 118 125 133 143 159 182 206 216 198 177 165 164 176
125 127 128 129 130 130 131 132 130 129 128 128 129 131 135 139 143 144 144 142 139 135 131 130 129 128 127 124 119 114 110 108 107 107 108 112 116 119 120 118 111 105 99 93 89 86 87 93 99 103 103 102 96 90 87 91 104 118 135 153 171 188 203 211 201 190 181 174 184
127 129 130 130 130 131 131 131 129 129 129 130 132 134 137 140 141 142 142 140 136 134 133 132 132 131 129 126 122 118 114 111 110 112 115 121 124 124 121 117 111 103 97 93 89 83 78 74 79 87 93 94 90 83 74 68 74 99 150 178 193 203 211 214 206 197 190 184 197
128 129 129 129 129 130 130 129 129 130 131 132 133 134 136 137 137 138 138 137 137 137 137 135 135 134 132 129 126 122 118 115 116 118 121 125 124 122 118 112 103 96 92 90 88 85 80 74 71 73 78 81 82 79 72 62 39 345 272 247 238 233 230 228 215 202 195 194 205
127 127 127 127 128 128 128 129 129 130 131 131 131 131 132 133 134 134 135 136 138 138 138 137 136 134 131 128 124 121 119 117 119 120 122 121 119 115 110 102 94 88 85 84 83 81 78 74 70 67 66 64 60 55 47 40 20 2 342 328 313 296 282 269 244 221 209 205 210
124 125 125 126 127 127 128 128 128 128 128 128 128 128 129 131 132 133 134 136 137 138 137 135 132 129 126 123 119 117 116 117 118 119 119 116 114 109 103 96 88 83 80 79 77 75 71 67 64 62 59 55 49 42 34 28 21 15 7 1 351 340 327 313 300 272 244 226 218
122 123 124 125 126 126 126 126 126 125 125 125 126 127 128 128 130 131 132 134 134 133 131 127 125 123 120 117 114 113 113 114 116 117 116 114 110 105 99 92 86 82 78 75 74 71 67 63 60 58 55 52 47 42 36 30 24 18 12 9 3 355 347 340 331 313 286 254 234
120 122 122 123 123 124 124 124 124 124 124 124 124 125 125 125 126 127 128 129 127 124 121 118 116 115 114 113 112 112 112 113 114 115 114 111 106 100 93 89 86 82 79 77 75 72 68 63 60 57 54 50 45 40 35 30 24 16 10 4 359 354 350 348 341 329 305 273 247
120 120 120 120 121 122 123 123 123 122 122 123 122 122 122 123 124 125 124 123 120 116 113 110 109 109 109 109 111 112 113 114 114 112 110 106 100 94 89 87 86 86 86 87 86 82 77 69 63 58 55 51 44 38 33 30 24 16 7 358 352 348 344 341 337 330 318 297 268
119 119 119 119 121 121 122 121 121 121 121 121 121 122 123 124 125 124 122 118 114 111 109 108 107 106 107 108 111 114 117 118 117 112 106 100 96 92 90 88 91 94 99 103 100 97 93 86 78 68 61 54 46 41 34 30 24 15 4 353 347 342 338 335 332 328 322 312 295
117 118 118 119 120 120 120 119 119 120 120 121 122 123 125 126 126 123 119 114 111 110 109 108 107 106 107 109 113 117 120 122 119 114 106 99 96 94 93 94 96 101 106 108 101 97 94 91 88 83 75 63 52 42 34 27 19 10 360 350 344 339 335 331 328 326 322 317 308
116 117 117 118 118 118 118 118 119 120 121 122 124 125 126 127 124 120 117 114 113 112 111 110 109 110 111 114 117 119 121 121 117 112 108 103 100 98 98 99 102 104 104 103 96 90 83 77 75 76 80 80 63 47 32 17 7 1 354 346 340 336 332 327 323 321 319 315 307
115 116 116 116 116 117 117 118 119 121 122 124 125 126 125 124 120 117 116 115 114 113 111 110 112 115 118 119 120 120 119 116 111 107 107 107 106 106 105 106 109 110 106 101 93 85 76 67 60 62 73 91 80 62 38 13 355 350 345 339 333 328 322 316 312 311 311 309 301
115 115 115 116 116 117 118 119 120 122 123 124 125 124 122 119 118 117 116 115 114 112 111 112 116 120 121 120 119 117 114 108 104 104 104 107 109 111 113 116 117 114 107 100 91 83 74 64 53 47 50 71 85 80 54 25 354 343 336 329 320 314 309 303 301 301 302 300 294
114 114 115 116 117 117 118 119 120 122 123 124 123 122 120 118 117 116 115 114 113 114 116 119 121 121 119 118 115 110 105 100 100 102 104 106 109 113 117 120 118 114 107 101 93 84 75 64 51 38 32 46 76 85 66 34 359 340 328 318 310 306 302 298 298 297 296 291 286
114 114 115 115 116 116 117 118 120 122 123 123 123 121 120 118 116 115 114 113 114 116 120 123 121 119 117 116 111 106 100 97 98 101 104 108 112 116 119 121 117 114 110 105 95 85 74 62 49 35 27 37 61 72 64 30 2 337 322 312 306 302 300 299 298 296 292 286 279
113 113 113 113 114 115 117 119 122 124 124 123 121 119 117 115 114 114 113 113 114 116 116 116 115 115 114 111 107 103 101 98 96 98 102 107 113 117 120 121 120 120 117 110 96 83 70 58 46 32 25 33 49 57 48 17 353 331 317 310 306 303 301 300 297 294 289 281 272
110 111 112 112 114 116 119 122 124 123 122 119 117 114 112 111 111 111 112 113 114 115 116 115 114 113 111 107 104 102 100 98 96 96 98 101 105 110 116 123 125 128 123 112 93 77 63 51 41 29 24 31 44 47 36 10 346 329 318 311 306 303 301 300 297 293 287 272 253
108 110 111 113 116 118 120 122 122 120 117 115 113 112 112 113 112 112 113 114 116 118 118 117 116 115 113 111 107 103 101 99 98 98 97 95 95 98 104 115 124 129 126 108 88 71 57 46 35 26 25 32 41 41 27 7 351 337 328 321 314 309 306 303 298 293 283 260 233
112 112 113 114 116 117 119 119 118 116 114 113 114 116 118 119 119 118 118 118 118 117 116 115 115 114 113 112 109 107 105 104 102 101 98 93 90 89 90 95 106 123 121 101 82 66 53 41 29 25 28 37 43 40 24 9 356 344 336 328 323 322 322 321 312 296 275 248 216
116 116 115 114 114 114 114 115 115 115 116 117 118 120 121 120 120 120 120 119 117 113 110 109 109 108 107 106 106 107 108 108 107 104 100 95 92 90 87 79 73 105 111 97 80 63 49 35 25 28 37 49 50 42 27 13 358 346 337 333 331 333 336 338 331 316 297 285 311
118 117 116 114 113 113 114 116 118 120 121 121 121 120 118 116 115 116 117 117 115 113 112 111 110 108 106 105 105 107 111 114 113 109 103 100 98 95 90 76 53 72 91 93 79 63 46 33 25 34 48 61 56 42 26 15 357 347 342 340 339 339 340 339 336 335 338 347 353
119 118 118 117 117 119 121 124 125 124 122 120 118 117 115 114 113 115 117 117 115 115 116 116 115 114 114 114 114 116 120 122 117 111 105 102 100 98 94 81 47 26 41 77 72 59 43 31 24 38 56 76 62 43 25 11 358 352 348 346 342 340 338 335 337 343 350 352 349
121 121 121 121 122 123 125 126 123 120 118 116 115 115 115 115 116 118 119 120 120 121 121 121 121 122 123 123 122 121 118 117 115 112 108 105 105 104 101 88 49 356 1 55 63 53 39 30 23 37 61 95 83 59 36 18 5 358 352 350 344 340 338 336 340 348 350 349 346
123 122 120 119 119 119 119 117 115 115 115 116 117 117 119 119 121 124 126 125 125 126 127 127 129 130 129 127 120 113 106 104 109 113 116 118 120 118 116 109 97 332 347 48 59 50 38 30 22 38 65 104 103 90 62 37 16 4 356 351 347 342 339 337 342 345 344 340 340
117 116 114 112 112 113 113 113 114 117 119 121 123 123 124 125 126 127 126 124 123 124 125 125 125 125 124 121 115 109 104 98 103 113 124 132 134 132 130 128 143 242 343 46 58 50 38 31 23 38 66 109 112 103 82 59 32 10 355 344 342 339 336 333 334 334 332 327 328
110 110 110 109 111 113 116 118 121 123 125 126 127 127 127 125 124 121 119 115 114 113 113 113 111 109 109 110 110 110 109 103 102 115 131 141 142 139 137 135 143 157 288 33 52 46 38 31 24 35 61 109 110 104 90 73 43 9 340 319 319 321 323 322 321 319 315 309 307